Вернуться в каталог

STARLINK-31088

АктивенСвязьVLEO
NORAD 58604·PAYLOAD·🇺🇸 United States

Запущен Dec 19, 2023 с Cape Canaveral Space Force Station

Loading…

Ближайшие Пролёты (ближайшие 24 часа)

TLE

СвежийSource: CelesTrak SupGP

Эпоха: Sep 15, 2026, 03:02 UTC

1 58604C 23200R   26258.12687500 -.00022769  00000+0 -82488-3 0  2580
2 58604  43.0006 178.8614 0001486 273.6727 113.2063 15.27582898    18

Отслеживайте STARLINK-31088 в реальном времени с AllMySat

Download on the App Store